Вернуться в каталог

COSMOS 1823 DEB

АктивенLEO
NORAD 18737·DEBRIS·🇷🇺 Russia

Запущен Feb 20, 1987 с Plesetsk Cosmodrome

Loading…

Ближайшие Пролёты (ближайшие 24 часа)

TLE

СвежийSource: Space-Track

Эпоха: Sep 14, 2026, 08:56 UTC

1 18737U 87020Q   26257.37275170 -.00000011  00000-0  44688-4 0  9994
2 18737  73.6024 281.7147 0026867 108.5388 263.9941 12.41561963755708

Отслеживайте COSMOS 1823 DEB в реальном времени с AllMySat

Download on the App Store